Year,Month,Day,Hour,Minute,Value (Times are PST for windspeed in km/hr)
2020,01,11,00,00,5.80
2020,01,11,00,01,6.10
2020,01,11,00,02,5.20
2020,01,11,00,03,3.00
2020,01,11,00,04,4.80
2020,01,11,00,05,3.30
2020,01,11,00,06,8.30
2020,01,11,00,07,6.40
2020,01,11,00,08,5.60
2020,01,11,00,09,5.20
2020,01,11,00,10,8.40
2020,01,11,00,11,5.00
2020,01,11,00,12,7.50
2020,01,11,00,13,4.20
2020,01,11,00,14,6.70
2020,01,11,00,15,9.60
2020,01,11,00,16,9.90
2020,01,11,00,17,8.10
2020,01,11,00,18,7.30
2020,01,11,00,19,6.30
2020,01,11,00,20,8.30
2020,01,11,00,21,5.90
2020,01,11,00,22,4.90
2020,01,11,00,23,5.60
2020,01,11,00,24,4.30
2020,01,11,00,25,3.90
2020,01,11,00,26,3.20
2020,01,11,00,27,2.90
2020,01,11,00,28,3.80
2020,01,11,00,29,4.70
2020,01,11,00,30,4.90
2020,01,11,00,31,4.80
2020,01,11,00,32,1.60
2020,01,11,00,33,2.90
2020,01,11,00,34,3.20
2020,01,11,00,35,4.70
2020,01,11,00,36,4.80
2020,01,11,00,37,4.10
2020,01,11,00,38,3.00
2020,01,11,00,39,2.90
2020,01,11,00,40,3.40
2020,01,11,00,41,3.00
2020,01,11,00,42,3.50
2020,01,11,00,43,1.70
2020,01,11,00,44,1.90
2020,01,11,00,45,2.80
2020,01,11,00,46,1.70
2020,01,11,00,47,2.60
2020,01,11,00,48,2.70
2020,01,11,00,49,4.60
2020,01,11,00,50,3.30
2020,01,11,00,51,3.60
2020,01,11,00,52,4.20
2020,01,11,00,53,3.00
2020,01,11,00,54,2.80
2020,01,11,00,55,4.20
2020,01,11,00,56,3.70
2020,01,11,00,57,4.90
2020,01,11,00,58,7.80
2020,01,11,00,59,8.70
2020,01,11,01,00,6.30
2020,01,11,01,01,7.80
2020,01,11,01,02,7.80
2020,01,11,01,03,7.40
2020,01,11,01,04,9.20
2020,01,11,01,05,7.50
2020,01,11,01,06,6.40
2020,01,11,01,07,6.30
2020,01,11,01,08,8.20
2020,01,11,01,09,8.60
2020,01,11,01,10,5.20
2020,01,11,01,11,6.00
2020,01,11,01,12,7.60
2020,01,11,01,13,5.90
2020,01,11,01,14,8.30
2020,01,11,01,15,11.20
2020,01,11,01,16,10.80
2020,01,11,01,17,6.40
2020,01,11,01,18,5.60
2020,01,11,01,19,6.40
2020,01,11,01,20,9.10
2020,01,11,01,21,6.80
2020,01,11,01,22,8.10
2020,01,11,01,23,6.00
2020,01,11,01,24,8.20
2020,01,11,01,25,5.60
2020,01,11,01,26,7.90
2020,01,11,01,27,8.20
2020,01,11,01,28,10.50
2020,01,11,01,29,9.60
2020,01,11,01,30,7.10
2020,01,11,01,31,6.90
2020,01,11,01,32,6.70
2020,01,11,01,33,7.00
2020,01,11,01,34,6.30
2020,01,11,01,35,8.30
2020,01,11,01,36,11.30
2020,01,11,01,37,12.30
2020,01,11,01,38,11.60
2020,01,11,01,39,7.40
2020,01,11,01,40,10.10
2020,01,11,01,41,13.70
2020,01,11,01,42,12.80
2020,01,11,01,43,15.20
2020,01,11,01,44,11.80
2020,01,11,01,45,11.20
2020,01,11,01,46,12.60
2020,01,11,01,47,11.60
2020,01,11,01,48,10.00
2020,01,11,01,49,8.30
2020,01,11,01,50,9.70
2020,01,11,01,51,10.60
2020,01,11,01,52,12.90
2020,01,11,01,53,10.10
2020,01,11,01,54,7.90
2020,01,11,01,55,9.40
2020,01,11,01,56,9.40
2020,01,11,01,57,10.50
2020,01,11,01,58,7.10
2020,01,11,01,59,7.00
2020,01,11,02,00,5.60
2020,01,11,02,01,7.70
2020,01,11,02,02,10.80
2020,01,11,02,03,9.10
2020,01,11,02,04,7.40
2020,01,11,02,05,10.60
2020,01,11,02,06,9.80
2020,01,11,02,07,8.20
2020,01,11,02,08,11.60
2020,01,11,02,09,10.30
2020,01,11,02,10,10.80
2020,01,11,02,11,7.30
2020,01,11,02,12,8.20
2020,01,11,02,13,7.60
2020,01,11,02,14,7.00
2020,01,11,02,15,9.40
2020,01,11,02,16,9.70
2020,01,11,02,17,7.80
2020,01,11,02,18,8.40
2020,01,11,02,19,10.30
2020,01,11,02,20,8.00
2020,01,11,02,21,10.80
2020,01,11,02,22,7.80
2020,01,11,02,23,7.40
2020,01,11,02,24,9.80
2020,01,11,02,25,9.00
2020,01,11,02,26,9.00
2020,01,11,02,27,6.70
2020,01,11,02,28,6.40
2020,01,11,02,29,6.20
2020,01,11,02,30,7.40
2020,01,11,02,31,7.10
2020,01,11,02,32,5.70
2020,01,11,02,33,6.10
2020,01,11,02,34,5.00
2020,01,11,02,35,5.30
2020,01,11,02,36,4.50
2020,01,11,02,37,3.30
2020,01,11,02,38,1.40
2020,01,11,02,39,4.00
2020,01,11,02,40,5.10
2020,01,11,02,41,2.50
2020,01,11,02,42,4.00
2020,01,11,02,43,6.80
2020,01,11,02,44,7.10
2020,01,11,02,45,4.60
2020,01,11,02,46,5.30
2020,01,11,02,47,4.60
2020,01,11,02,48,3.90
2020,01,11,02,49,3.30
2020,01,11,02,50,4.40
2020,01,11,02,51,3.00
2020,01,11,02,52,2.50
2020,01,11,02,53,5.90
2020,01,11,02,54,4.50
2020,01,11,02,55,3.10
2020,01,11,02,56,4.00
2020,01,11,02,57,6.00
2020,01,11,02,58,3.20
2020,01,11,02,59,2.50
2020,01,11,03,00,3.40
2020,01,11,03,01,2.00
2020,01,11,03,02,5.50
2020,01,11,03,03,5.30
2020,01,11,03,04,6.80
2020,01,11,03,05,3.20
2020,01,11,03,06,2.40
2020,01,11,03,07,1.60
2020,01,11,03,08,2.40
2020,01,11,03,09,4.00
2020,01,11,03,10,1.40
2020,01,11,03,11,3.80
2020,01,11,03,12,4.30
2020,01,11,03,13,3.30
2020,01,11,03,14,2.70
2020,01,11,03,15,3.30
2020,01,11,03,16,3.90
2020,01,11,03,17,2.80
2020,01,11,03,18,3.80
2020,01,11,03,19,3.00
2020,01,11,03,20,3.70
2020,01,11,03,21,4.00
2020,01,11,03,22,3.20
2020,01,11,03,23,3.60
2020,01,11,03,24,4.50
2020,01,11,03,25,2.50
2020,01,11,03,26,5.00
2020,01,11,03,27,2.10
2020,01,11,03,28,1.80
2020,01,11,03,29,1.90
2020,01,11,03,30,2.00
2020,01,11,03,31,2.10
2020,01,11,03,32,2.70
2020,01,11,03,33,4.00
2020,01,11,03,34,2.80
2020,01,11,03,35,2.50
2020,01,11,03,36,2.40
2020,01,11,03,37,3.10
2020,01,11,03,38,4.10
2020,01,11,03,39,3.00
2020,01,11,03,40,2.40
2020,01,11,03,41,2.70
2020,01,11,03,42,3.20
2020,01,11,03,43,3.30
2020,01,11,03,44,2.70
2020,01,11,03,45,2.80
2020,01,11,03,46,2.90
2020,01,11,03,47,1.90
2020,01,11,03,48,2.90
2020,01,11,03,49,2.90
2020,01,11,03,50,4.40
2020,01,11,03,51,3.20
2020,01,11,03,52,3.20
2020,01,11,03,53,2.60
2020,01,11,03,54,2.90
2020,01,11,03,55,2.50
2020,01,11,03,56,2.10
2020,01,11,03,57,2.50
2020,01,11,03,58,3.20
2020,01,11,03,59,3.90
2020,01,11,04,00,3.40
2020,01,11,04,01,2.60
2020,01,11,04,02,1.40
2020,01,11,04,03,2.10
2020,01,11,04,04,2.10
2020,01,11,04,05,2.60
2020,01,11,04,06,1.90
2020,01,11,04,07,1.60
2020,01,11,04,08,2.90
2020,01,11,04,09,5.80
2020,01,11,04,10,2.50
2020,01,11,04,11,1.40
2020,01,11,04,12,0.80
2020,01,11,04,13,1.50
2020,01,11,04,14,1.30
2020,01,11,04,15,2.10
2020,01,11,04,16,1.60
2020,01,11,04,17,2.00
2020,01,11,04,18,2.60
2020,01,11,04,19,1.20
2020,01,11,04,20,2.40
2020,01,11,04,21,0.80
2020,01,11,04,22,2.00
2020,01,11,04,23,1.00
2020,01,11,04,24,4.40
2020,01,11,04,25,3.20
2020,01,11,04,26,1.90
2020,01,11,04,27,1.40
2020,01,11,04,28,1.70
2020,01,11,04,29,1.80
2020,01,11,04,30,3.40
2020,01,11,04,31,1.90
2020,01,11,04,32,2.10
2020,01,11,04,33,0.30
2020,01,11,04,34,0.20
2020,01,11,04,35,0.20
2020,01,11,04,36,0.70
2020,01,11,04,37,1.70
2020,01,11,04,38,2.10
2020,01,11,04,39,1.90
2020,01,11,04,40,2.90
2020,01,11,04,41,2.70
2020,01,11,04,42,3.60
2020,01,11,04,43,2.10
2020,01,11,04,44,1.60
2020,01,11,04,45,3.00
2020,01,11,04,46,2.30
2020,01,11,04,47,5.20
2020,01,11,04,48,3.80
2020,01,11,04,49,2.20
2020,01,11,04,50,4.20
2020,01,11,04,51,3.50
2020,01,11,04,52,3.20
2020,01,11,04,53,4.70
2020,01,11,04,54,4.80
2020,01,11,04,55,3.90
2020,01,11,04,56,5.30
2020,01,11,04,57,8.10
2020,01,11,04,58,7.80
2020,01,11,04,59,6.30
2020,01,11,05,00,6.70
2020,01,11,05,01,5.30
2020,01,11,05,02,7.30
2020,01,11,05,03,4.30
2020,01,11,05,04,7.20
2020,01,11,05,05,6.40
2020,01,11,05,06,7.20
2020,01,11,05,07,6.10
2020,01,11,05,08,4.80
2020,01,11,05,09,4.80
2020,01,11,05,10,4.80
2020,01,11,05,11,4.80
2020,01,11,05,12,4.80
2020,01,11,05,13,4.80
2020,01,11,05,14,4.80
2020,01,11,05,15,4.80
2020,01,11,05,16,4.80
2020,01,11,05,17,4.80
2020,01,11,09,14,7.50
2020,01,11,09,15,9.40
2020,01,11,09,16,7.20
2020,01,11,09,17,11.20
2020,01,11,09,18,10.20
2020,01,11,09,19,4.10
2020,01,11,09,20,5.90
2020,01,11,09,21,10.70
2020,01,11,09,22,9.40
2020,01,11,09,23,5.20
2020,01,11,09,24,8.70
2020,01,11,09,25,6.60
2020,01,11,09,26,4.90
2020,01,11,09,27,6.80
2020,01,11,09,28,11.40
2020,01,11,09,29,8.40
2020,01,11,09,30,11.90
2020,01,11,09,31,12.80
2020,01,11,09,32,11.60
2020,01,11,09,33,11.30
2020,01,11,09,34,12.00
2020,01,11,09,35,12.30
2020,01,11,09,36,15.00
2020,01,11,09,37,20.00
2020,01,11,09,38,20.80
2020,01,11,09,39,13.30
2020,01,11,09,40,13.30
2020,01,11,09,41,14.30
2020,01,11,09,42,12.00
2020,01,11,09,43,11.60
2020,01,11,09,44,20.40
2020,01,11,09,45,13.50
2020,01,11,09,46,13.40
2020,01,11,09,47,15.40
2020,01,11,09,48,15.10
2020,01,11,09,49,18.80
2020,01,11,09,50,19.20
2020,01,11,09,51,18.20
2020,01,11,09,52,18.50
2020,01,11,09,53,15.60
2020,01,11,09,54,19.30
2020,01,11,09,55,10.00
2020,01,11,09,56,11.00
2020,01,11,09,57,12.80
2020,01,11,09,58,9.20
2020,01,11,09,59,14.00
2020,01,11,10,00,10.60
2020,01,11,10,01,19.00
2020,01,11,10,02,14.20
2020,01,11,10,03,14.00
2020,01,11,10,04,17.40
2020,01,11,10,05,20.60
2020,01,11,10,06,7.60
2020,01,11,10,07,16.40
2020,01,11,10,08,14.30
2020,01,11,10,09,18.80
2020,01,11,10,10,20.90
2020,01,11,10,11,19.40
2020,01,11,10,12,17.30
2020,01,11,10,13,17.50
2020,01,11,10,14,17.10
2020,01,11,10,15,20.20
2020,01,11,10,16,19.40
2020,01,11,10,17,16.50
2020,01,11,10,18,15.70
2020,01,11,10,19,14.80
2020,01,11,10,20,16.00
2020,01,11,10,21,17.50
2020,01,11,10,22,17.70
2020,01,11,10,23,15.30
2020,01,11,10,24,13.30
2020,01,11,10,25,14.30
2020,01,11,10,26,11.30
2020,01,11,10,27,11.60
2020,01,11,10,28,13.10
2020,01,11,10,29,5.20
2020,01,11,10,30,7.80
2020,01,11,10,31,11.50
2020,01,11,10,32,12.10
2020,01,11,10,33,10.00
2020,01,11,10,34,11.60
2020,01,11,10,35,11.90
2020,01,11,10,36,10.40
2020,01,11,10,37,7.30
2020,01,11,10,38,6.30
2020,01,11,10,39,15.10
2020,01,11,10,40,20.90
2020,01,11,10,41,16.70
2020,01,11,10,42,14.60
2020,01,11,10,43,16.60
2020,01,11,10,44,12.20
2020,01,11,10,45,15.80
2020,01,11,10,46,23.20
2020,01,11,10,47,18.60
2020,01,11,10,48,15.30
2020,01,11,10,49,17.90
2020,01,11,10,50,17.60
2020,01,11,10,51,15.80
2020,01,11,10,52,14.60
2020,01,11,10,53,13.70
2020,01,11,10,54,14.40
2020,01,11,10,55,9.70
2020,01,11,10,56,12.70
2020,01,11,10,57,13.70
2020,01,11,10,58,13.90
2020,01,11,10,59,9.30
2020,01,11,11,00,12.40
2020,01,11,11,01,17.00
2020,01,11,11,02,13.20
2020,01,11,11,03,15.10
2020,01,11,11,04,11.80
2020,01,11,11,05,10.50
2020,01,11,11,06,9.20
2020,01,11,11,07,11.30
2020,01,11,11,08,10.70
2020,01,11,11,09,9.80
2020,01,11,11,10,8.20
2020,01,11,11,11,10.10
2020,01,11,11,12,5.60
2020,01,11,11,13,8.30
2020,01,11,11,14,12.30
2020,01,11,11,15,7.40
2020,01,11,11,16,7.20
2020,01,11,11,17,7.00
2020,01,11,11,18,7.20
2020,01,11,11,19,5.60
2020,01,11,11,20,5.20
2020,01,11,11,21,6.00
2020,01,11,11,22,7.20
2020,01,11,11,23,7.50
2020,01,11,11,24,11.20
2020,01,11,11,25,12.40
2020,01,11,11,26,11.60
2020,01,11,11,27,7.90
2020,01,11,11,28,10.50
2020,01,11,11,29,9.30
2020,01,11,11,30,8.00
2020,01,11,11,31,6.30
2020,01,11,11,32,5.40
2020,01,11,11,33,4.80
2020,01,11,11,34,5.90
2020,01,11,11,35,5.30
2020,01,11,11,36,4.80
2020,01,11,11,37,5.80
2020,01,11,11,38,4.10
2020,01,11,11,39,2.00
2020,01,11,11,40,5.90
2020,01,11,11,41,5.70
2020,01,11,11,42,4.60
2020,01,11,11,43,10.20
2020,01,11,11,44,12.90
2020,01,11,11,45,9.40
2020,01,11,11,46,10.20
2020,01,11,11,47,10.20
2020,01,11,11,48,10.40
2020,01,11,11,49,9.50
2020,01,11,11,50,8.30
2020,01,11,11,51,10.20
2020,01,11,11,52,8.50
2020,01,11,11,53,8.00
2020,01,11,11,54,8.90
2020,01,11,11,55,5.90
2020,01,11,11,56,8.60
2020,01,11,11,57,9.50
2020,01,11,11,58,17.10
2020,01,11,11,59,9.40
2020,01,11,12,00,8.50
2020,01,11,12,01,10.40
2020,01,11,12,02,9.70
2020,01,11,12,03,16.30
2020,01,11,12,04,13.60
2020,01,11,12,05,9.90
2020,01,11,12,06,12.20
2020,01,11,12,07,14.10
2020,01,11,12,08,9.40
2020,01,11,12,09,10.30
2020,01,11,12,10,9.40
2020,01,11,12,11,9.90
2020,01,11,12,12,13.40
2020,01,11,12,13,14.80
2020,01,11,12,14,15.50
2020,01,11,12,15,13.30
2020,01,11,12,16,11.90
2020,01,11,12,17,15.80
2020,01,11,12,18,12.60
2020,01,11,12,19,11.00
2020,01,11,12,20,12.10
2020,01,11,12,21,14.90
2020,01,11,12,22,10.60
2020,01,11,12,23,16.20
2020,01,11,12,24,19.50
2020,01,11,12,25,12.80
2020,01,11,12,26,9.50
2020,01,11,12,27,10.20
2020,01,11,12,28,14.80
2020,01,11,12,29,15.90
2020,01,11,12,30,15.30
2020,01,11,12,31,10.10
2020,01,11,12,32,8.50
2020,01,11,12,33,12.30
2020,01,11,12,34,7.40
2020,01,11,12,35,12.70
2020,01,11,12,36,13.20
2020,01,11,12,37,7.40
2020,01,11,12,38,12.80
2020,01,11,12,39,11.40
2020,01,11,12,40,6.10
2020,01,11,12,41,10.30
2020,01,11,12,42,13.30
2020,01,11,12,43,15.60
2020,01,11,12,44,14.90
2020,01,11,12,45,19.50
2020,01,11,12,46,17.60
2020,01,11,12,47,10.20
2020,01,11,12,48,13.40
2020,01,11,12,49,17.00
2020,01,11,12,50,17.90
2020,01,11,12,51,19.10
2020,01,11,12,52,13.50
2020,01,11,12,53,17.60
2020,01,11,12,54,16.30
2020,01,11,12,55,10.00
2020,01,11,12,56,10.50
2020,01,11,12,57,13.70
2020,01,11,12,58,19.40
2020,01,11,12,59,17.00
2020,01,11,13,00,16.30
2020,01,11,13,01,11.80
2020,01,11,13,02,18.10
2020,01,11,13,03,15.00
2020,01,11,13,04,14.50
2020,01,11,13,05,11.50
2020,01,11,13,06,8.20
2020,01,11,13,07,11.20
2020,01,11,13,08,14.90
2020,01,11,13,09,8.40
2020,01,11,13,10,9.00
2020,01,11,13,11,11.70
2020,01,11,13,12,10.80
2020,01,11,13,13,10.40
2020,01,11,13,14,8.90
2020,01,11,13,15,12.30
2020,01,11,13,16,12.40
2020,01,11,13,17,9.80
2020,01,11,13,18,14.00
2020,01,11,13,19,17.40
2020,01,11,13,20,17.40
2020,01,11,13,21,13.00
2020,01,11,13,22,11.60
2020,01,11,13,23,8.30
2020,01,11,13,24,9.40
2020,01,11,13,25,14.60
2020,01,11,13,26,12.40
2020,01,11,13,27,11.90
2020,01,11,13,28,9.90
2020,01,11,13,29,7.30
2020,01,11,13,30,8.70
2020,01,11,13,31,8.30
2020,01,11,13,32,10.00
2020,01,11,13,33,13.90
2020,01,11,13,34,9.50
2020,01,11,13,35,6.80
2020,01,11,13,36,9.70
2020,01,11,13,37,9.80
2020,01,11,13,38,8.90
2020,01,11,13,39,12.10
2020,01,11,13,40,20.70
2020,01,11,13,41,15.10
2020,01,11,13,42,12.50
2020,01,11,13,43,18.20
2020,01,11,13,44,15.70
2020,01,11,13,45,15.10
2020,01,11,13,46,14.50
2020,01,11,13,47,14.90
2020,01,11,13,48,15.20
2020,01,11,13,49,19.50
2020,01,11,13,50,15.10
2020,01,11,13,51,12.50
2020,01,11,13,52,10.60
2020,01,11,13,53,15.20
2020,01,11,13,54,10.70
2020,01,11,13,55,10.40
2020,01,11,13,56,15.50
2020,01,11,13,57,12.60
2020,01,11,13,58,15.70
2020,01,11,13,59,9.50
2020,01,11,14,00,8.70
2020,01,11,14,01,10.10
2020,01,11,14,02,8.00
2020,01,11,14,03,5.00
2020,01,11,14,04,7.70
2020,01,11,14,05,7.70
2020,01,11,14,06,4.00
2020,01,11,14,07,12.60
2020,01,11,14,08,11.10
2020,01,11,14,09,6.00
2020,01,11,14,10,15.80
2020,01,11,14,11,11.70
2020,01,11,14,12,10.60
2020,01,11,14,13,7.30
2020,01,11,14,14,8.70
2020,01,11,14,15,8.30
2020,01,11,14,16,10.10
2020,01,11,14,17,10.60
2020,01,11,14,18,12.30
2020,01,11,14,19,7.80
2020,01,11,14,20,2.80
2020,01,11,14,21,5.10
2020,01,11,14,22,3.00
2020,01,11,14,23,5.60
2020,01,11,14,24,6.80
2020,01,11,14,25,4.30
2020,01,11,14,26,5.30
2020,01,11,14,27,3.60
2020,01,11,14,28,6.80
2020,01,11,14,29,7.00
2020,01,11,14,30,2.50
2020,01,11,14,31,0.60
2020,01,11,14,32,7.10
2020,01,11,14,33,4.70
2020,01,11,14,34,2.00
2020,01,11,14,35,8.70
2020,01,11,14,36,3.30
2020,01,11,14,37,6.80
2020,01,11,14,38,2.70
2020,01,11,14,39,2.20
2020,01,11,14,40,4.70
2020,01,11,14,41,4.80
2020,01,11,14,42,4.60
2020,01,11,14,43,4.50
2020,01,11,14,44,4.10
2020,01,11,14,45,1.50
2020,01,11,14,46,3.90
2020,01,11,14,47,3.60
2020,01,11,14,48,4.80
2020,01,11,14,49,5.20
2020,01,11,14,50,3.90
2020,01,11,14,51,7.60
2020,01,11,14,52,7.90
2020,01,11,14,53,4.40
2020,01,11,14,54,3.10
2020,01,11,14,55,1.70
2020,01,11,14,56,2.80
2020,01,11,14,57,7.00
2020,01,11,14,58,5.80
2020,01,11,14,59,4.50
2020,01,11,15,00,3.20
2020,01,11,15,01,3.80
2020,01,11,15,02,6.20
2020,01,11,15,03,5.40
2020,01,11,15,04,6.10
2020,01,11,15,05,6.40
2020,01,11,15,06,6.30
2020,01,11,15,07,4.30
2020,01,11,15,08,2.00
2020,01,11,15,09,5.70
2020,01,11,15,10,9.30
2020,01,11,15,11,6.60
2020,01,11,15,12,6.80
2020,01,11,15,13,12.00
2020,01,11,15,14,8.60
2020,01,11,15,15,9.10
2020,01,11,15,16,7.10
2020,01,11,15,17,6.00
2020,01,11,15,18,8.40
2020,01,11,15,19,7.50
2020,01,11,15,20,7.50
2020,01,11,15,21,11.10
2020,01,11,15,22,9.10
2020,01,11,15,23,5.30
2020,01,11,15,24,3.00
2020,01,11,15,25,6.80
2020,01,11,15,26,5.30
2020,01,11,15,27,2.30
2020,01,11,15,28,1.80
2020,01,11,15,29,4.40
2020,01,11,15,30,4.10
2020,01,11,15,31,4.10
2020,01,11,15,32,4.90
2020,01,11,15,33,0.40
2020,01,11,15,34,0.60
2020,01,11,15,35,2.40
2020,01,11,15,36,3.70
2020,01,11,15,37,4.40
2020,01,11,15,38,1.80
2020,01,11,15,39,2.50
2020,01,11,15,40,1.20
2020,01,11,15,41,1.10
2020,01,11,15,42,3.30
2020,01,11,15,43,2.60
2020,01,11,15,44,1.70
2020,01,11,15,45,1.60
2020,01,11,15,46,1.70
2020,01,11,15,47,1.60
2020,01,11,15,48,1.00
2020,01,11,15,49,5.30
2020,01,11,15,50,2.90
2020,01,11,15,51,0.80
2020,01,11,15,52,1.70
2020,01,11,15,53,4.30
2020,01,11,15,54,5.50
2020,01,11,15,55,5.60
2020,01,11,15,56,1.10
2020,01,11,15,57,1.30
2020,01,11,15,58,3.70
2020,01,11,15,59,3.60
2020,01,11,16,00,2.10
2020,01,11,16,01,2.50
2020,01,11,16,02,0.10
2020,01,11,16,03,3.20
2020,01,11,16,04,2.10
2020,01,11,16,05,1.20
2020,01,11,16,06,1.80
2020,01,11,16,07,3.30
2020,01,11,16,08,1.80
2020,01,11,16,09,0.30
2020,01,11,16,10,3.50
2020,01,11,16,11,0.90
2020,01,11,16,12,2.00
2020,01,11,16,13,2.60
2020,01,11,16,14,2.50
2020,01,11,16,15,2.60
2020,01,11,16,16,2.80
2020,01,11,16,17,1.00
2020,01,11,16,18,3.10
2020,01,11,16,19,3.20
2020,01,11,16,20,1.60
2020,01,11,16,21,4.70
2020,01,11,16,22,5.30
2020,01,11,16,23,1.00
2020,01,11,16,24,2.80
2020,01,11,16,25,5.10
2020,01,11,16,26,0.80
2020,01,11,16,27,0.70
2020,01,11,16,28,0.80
2020,01,11,16,29,0.60
2020,01,11,16,30,1.20
2020,01,11,16,31,1.70
2020,01,11,16,32,3.10
2020,01,11,16,33,3.80
2020,01,11,16,34,2.90
2020,01,11,16,35,3.30
2020,01,11,16,36,1.70
2020,01,11,16,37,3.80
2020,01,11,16,38,0.90
2020,01,11,16,39,0.00
2020,01,11,16,40,1.70
2020,01,11,16,41,1.90
2020,01,11,16,42,0.10
2020,01,11,16,43,0.20
2020,01,11,16,44,0.20
2020,01,11,16,45,1.50
2020,01,11,16,46,2.20
2020,01,11,16,47,0.80
2020,01,11,16,48,0.50
2020,01,11,16,49,0.10
2020,01,11,16,50,0.00
2020,01,11,16,51,0.00
2020,01,11,16,52,0.00
2020,01,11,16,53,0.60
2020,01,11,16,54,0.00
2020,01,11,16,55,0.00
2020,01,11,16,56,0.30
2020,01,11,16,57,0.00
2020,01,11,16,58,0.20
2020,01,11,16,59,0.20
2020,01,11,17,00,0.10
2020,01,11,17,01,1.10
2020,01,11,17,02,1.40
2020,01,11,17,03,0.50
2020,01,11,17,04,0.60
2020,01,11,17,05,1.00
2020,01,11,17,06,1.20
2020,01,11,17,07,2.90
2020,01,11,17,08,0.20
2020,01,11,17,09,0.30
2020,01,11,17,10,1.10
2020,01,11,17,11,0.80
2020,01,11,17,12,0.90
2020,01,11,17,13,0.10
2020,01,11,17,14,0.40
2020,01,11,17,15,0.90
2020,01,11,17,16,0.40
2020,01,11,17,17,2.60
2020,01,11,17,18,0.20
2020,01,11,17,19,0.30
2020,01,11,17,20,0.60
2020,01,11,17,21,0.10
2020,01,11,17,22,0.90
2020,01,11,17,23,2.10
2020,01,11,17,24,1.10
2020,01,11,17,25,3.20
2020,01,11,17,26,2.60
2020,01,11,17,27,1.30
2020,01,11,17,28,0.00
2020,01,11,17,29,0.50
2020,01,11,17,30,1.60
2020,01,11,17,31,1.30
2020,01,11,17,32,1.30
2020,01,11,17,33,0.20
2020,01,11,17,34,0.90
2020,01,11,17,35,1.10
2020,01,11,17,36,1.20
2020,01,11,17,37,0.70
2020,01,11,17,38,0.20
2020,01,11,17,39,0.80
2020,01,11,17,40,0.20
2020,01,11,17,41,0.00
2020,01,11,17,42,0.60
2020,01,11,17,43,1.50
2020,01,11,17,44,0.80
2020,01,11,17,45,0.00
2020,01,11,17,46,0.10
2020,01,11,17,47,1.20
2020,01,11,17,48,0.40
2020,01,11,17,49,0.80
2020,01,11,17,50,0.00
2020,01,11,17,51,0.00
2020,01,11,17,52,0.50
2020,01,11,17,53,0.70
2020,01,11,17,54,0.90
2020,01,11,17,55,0.50
2020,01,11,17,56,0.10
2020,01,11,17,57,0.00
2020,01,11,17,58,0.10
2020,01,11,17,59,0.50
2020,01,11,18,00,0.10
2020,01,11,18,01,0.80
2020,01,11,18,02,0.50
2020,01,11,18,03,0.20
2020,01,11,18,04,0.40
2020,01,11,18,05,0.00
2020,01,11,18,06,0.00
2020,01,11,18,07,0.00
2020,01,11,18,08,0.00
2020,01,11,18,09,0.00
2020,01,11,18,10,0.00
2020,01,11,18,11,0.00
2020,01,11,18,12,0.00
2020,01,11,18,13,0.00
2020,01,11,18,14,0.00
2020,01,11,18,15,0.00
2020,01,11,18,16,0.20
2020,01,11,18,17,0.70
2020,01,11,18,18,0.80
2020,01,11,18,19,0.20
2020,01,11,18,20,0.80
2020,01,11,18,21,0.20
2020,01,11,18,22,0.00
2020,01,11,18,23,0.10
2020,01,11,18,24,0.00
2020,01,11,18,25,1.00
2020,01,11,18,26,1.50
2020,01,11,18,27,1.00
2020,01,11,18,28,1.30
2020,01,11,18,29,2.00
2020,01,11,18,30,1.90
2020,01,11,18,31,1.90
2020,01,11,18,32,1.60
2020,01,11,18,33,1.00
2020,01,11,18,34,2.80
2020,01,11,18,35,2.80
2020,01,11,18,36,1.90
2020,01,11,18,37,1.20
2020,01,11,18,38,2.00
2020,01,11,18,39,1.20
2020,01,11,18,40,4.90
2020,01,11,18,41,2.20
2020,01,11,18,42,2.00
2020,01,11,18,43,0.40
2020,01,11,18,44,0.60
2020,01,11,18,45,2.90
2020,01,11,18,46,2.70
2020,01,11,18,47,0.70
2020,01,11,18,48,0.20
2020,01,11,18,49,1.30
2020,01,11,18,50,2.30
2020,01,11,18,51,2.30
2020,01,11,18,52,1.00
2020,01,11,18,53,1.80
2020,01,11,18,54,1.50
2020,01,11,18,55,2.50
2020,01,11,18,56,1.40
2020,01,11,18,57,2.30
2020,01,11,18,58,1.60
2020,01,11,18,59,2.20
2020,01,11,19,00,0.60
2020,01,11,19,01,1.90
2020,01,11,19,02,1.20
2020,01,11,19,03,1.90
2020,01,11,19,04,0.10
2020,01,11,19,05,0.90
2020,01,11,19,06,2.20
2020,01,11,19,07,2.00
2020,01,11,19,08,0.90
2020,01,11,19,09,0.00
2020,01,11,19,10,0.00
2020,01,11,19,11,0.10
2020,01,11,19,12,0.10
2020,01,11,19,13,0.10
2020,01,11,19,14,0.90
2020,01,11,19,15,0.40
2020,01,11,19,16,2.00
2020,01,11,19,17,2.80
2020,01,11,19,18,1.50
2020,01,11,19,19,0.00
2020,01,11,19,20,0.00
2020,01,11,19,21,0.00
2020,01,11,19,22,0.00
2020,01,11,19,23,0.00
2020,01,11,19,24,0.00
2020,01,11,19,25,1.40
2020,01,11,19,26,1.30
2020,01,11,19,27,0.70
2020,01,11,19,28,1.10
2020,01,11,19,29,1.30
2020,01,11,19,30,0.80
2020,01,11,19,31,2.20
2020,01,11,19,32,2.90
2020,01,11,19,33,1.30
2020,01,11,19,34,0.50
2020,01,11,19,35,0.60
2020,01,11,19,36,1.10
2020,01,11,19,37,1.30
2020,01,11,19,38,1.30
2020,01,11,19,39,2.70
2020,01,11,19,40,2.00
2020,01,11,19,41,2.20
2020,01,11,19,42,1.70
2020,01,11,19,43,3.10
2020,01,11,19,44,1.40
2020,01,11,19,45,3.20
2020,01,11,19,46,2.10
2020,01,11,19,47,3.20
2020,01,11,19,48,4.40
2020,01,11,19,49,3.60
2020,01,11,19,50,2.20
2020,01,11,19,51,1.20
2020,01,11,19,52,0.10
2020,01,11,19,53,0.00
2020,01,11,19,54,0.90
2020,01,11,19,55,0.90
2020,01,11,19,56,0.00
2020,01,11,19,57,1.50
2020,01,11,19,58,1.50
2020,01,11,19,59,0.20
2020,01,11,20,00,0.20
2020,01,11,20,01,1.10
2020,01,11,20,02,0.60
2020,01,11,20,03,1.10
2020,01,11,20,04,2.20
2020,01,11,20,05,1.60
2020,01,11,20,06,2.50
2020,01,11,20,07,1.50
2020,01,11,20,08,1.30
2020,01,11,20,09,1.30
2020,01,11,20,10,1.70
2020,01,11,20,11,1.10
2020,01,11,20,12,3.30
2020,01,11,20,13,2.60
2020,01,11,20,14,1.30
2020,01,11,20,15,1.00
2020,01,11,20,16,0.90
2020,01,11,20,17,1.80
2020,01,11,20,18,1.30
2020,01,11,20,19,1.00
2020,01,11,20,20,1.40
2020,01,11,20,21,3.00
2020,01,11,20,22,1.50
2020,01,11,20,23,1.80
2020,01,11,20,24,2.30
2020,01,11,20,25,6.70
2020,01,11,20,26,3.50
2020,01,11,20,27,4.80
2020,01,11,20,28,6.90
2020,01,11,20,29,6.30
2020,01,11,20,30,7.80
2020,01,11,20,31,3.20
2020,01,11,20,32,4.30
2020,01,11,20,33,5.30
2020,01,11,20,34,3.80
2020,01,11,20,35,4.00
2020,01,11,20,36,7.70
2020,01,11,20,37,6.60
2020,01,11,20,38,5.90
2020,01,11,20,39,5.50
2020,01,11,20,40,2.90
2020,01,11,20,41,4.80
2020,01,11,20,42,5.30
2020,01,11,20,43,5.00
2020,01,11,20,44,8.80
2020,01,11,20,45,6.10
2020,01,11,20,46,5.80
2020,01,11,20,47,6.80
2020,01,11,20,48,7.40
2020,01,11,20,49,6.40
2020,01,11,20,50,7.80
2020,01,11,20,51,7.20
2020,01,11,20,52,8.30
2020,01,11,20,53,5.50
2020,01,11,20,54,7.10
2020,01,11,20,55,11.00
2020,01,11,20,56,8.40
2020,01,11,20,57,4.70
2020,01,11,20,58,4.40
2020,01,11,20,59,3.50
2020,01,11,21,00,9.30
2020,01,11,21,01,4.80
2020,01,11,21,02,3.30
2020,01,11,21,03,7.30
2020,01,11,21,04,5.60
2020,01,11,21,05,6.70
2020,01,11,21,06,5.50
2020,01,11,21,07,6.00
2020,01,11,21,08,7.80
2020,01,11,21,09,4.90
2020,01,11,21,10,4.90
2020,01,11,21,11,6.40
2020,01,11,21,12,9.90
2020,01,11,21,13,3.60
2020,01,11,21,14,6.00
2020,01,11,21,15,9.40
2020,01,11,21,16,10.90
2020,01,11,21,17,7.30
2020,01,11,21,18,7.20
2020,01,11,21,19,7.30
2020,01,11,21,20,4.40
2020,01,11,21,21,4.80
2020,01,11,21,22,3.10
2020,01,11,21,23,3.50
2020,01,11,21,24,2.30
2020,01,11,21,25,2.00
2020,01,11,21,26,3.20
2020,01,11,21,27,2.10
2020,01,11,21,28,2.10
2020,01,11,21,29,3.60
2020,01,11,21,30,11.70
2020,01,11,21,31,7.20
2020,01,11,21,32,5.70
2020,01,11,21,33,5.50
2020,01,11,21,34,6.70
2020,01,11,21,35,1.80
2020,01,11,21,36,4.20
2020,01,11,21,37,4.90
2020,01,11,21,38,4.10
2020,01,11,21,39,5.20
2020,01,11,21,40,7.90
2020,01,11,21,41,7.10
2020,01,11,21,42,9.10
2020,01,11,21,43,6.00
2020,01,11,21,44,10.30
2020,01,11,21,45,6.80
2020,01,11,21,46,2.90
2020,01,11,21,47,5.90
2020,01,11,21,48,13.00
2020,01,11,21,49,13.60
2020,01,11,21,50,7.50
2020,01,11,21,51,7.50